| time (UTC) | temp C | wind direction | speed KPH | gust KPH | rain 1hr cm | rain 24hr cm | rain mn cm | humidity % | barometer mb |
| 20260504223004 | 26 | 21 | 1.6 | 8.0 | 0.00 | 0.81 | 0.00 | 52 | 1013.1 |
| 20260504222004 | 27 | 43 | 1.6 | 4.8 | 0.00 | 0.81 | 0.00 | 51 | 1013.2 |
| 20260504220505 | 28 | 74 | 1.6 | 3.2 | 0.00 | 0.81 | 0.00 | 45 | 1013.0 |
| 20260504215004 | 28 | 146 | 1.6 | 8.0 | 0.00 | 0.81 | 0.00 | 47 | 1013.0 |
| 20260504212504 | 28 | 1 | 3.2 | 4.8 | 0.00 | 0.81 | 0.00 | 45 | 1013.2 |
| 20260504211506 | 28 | 68 | 3.2 | 11.3 | 0.00 | 0.81 | 0.00 | 44 | 1013.2 |
| 20260504211005 | 30 | 111 | 3.2 | 12.9 | 0.00 | 0.81 | 0.00 | 43 | 1013.2 |
| 20260504205504 | 29 | 30 | 3.2 | 4.8 | 0.00 | 0.81 | 0.00 | 40 | 1013.1 |
| 20260504205004 | 30 | 184 | 1.6 | 4.8 | 0.00 | 0.81 | 0.00 | 43 | 1013.0 |
| 20260504204504 | 30 | 33 | 3.2 | 8.0 | 0.00 | 0.81 | 0.00 | 39 | 1013.1 |
| 20260504203005 | 30 | 237 | 1.6 | 4.8 | 0.00 | 0.81 | 0.00 | 39 | 1013.2 |
| 20260504202504 | 30 | 53 | 3.2 | 8.0 | 0.00 | 0.81 | 0.00 | 40 | 1013.3 |
| 20260504201504 | 29 | 195 | 3.2 | 8.0 | 0.00 | 0.81 | 0.00 | 42 | 1013.3 |
| 20260504200504 | 28 | 296 | 1.6 | 8.0 | 0.00 | 0.81 | 0.00 | 39 | 1013.5 |
| 20260504200004 | 28 | 257 | 3.2 | 9.7 | 0.00 | 0.81 | 0.00 | 42 | 1013.5 |
| 20260504195505 | 30 | 72 | 3.2 | 8.0 | 0.00 | 0.81 | 0.00 | 38 | 1013.8 |
| 20260504194504 | 29 | 37 | 4.8 | 8.0 | 0.00 | 0.81 | 0.00 | 38 | 1013.9 |
| 20260504193505 | 28 | 335 | 3.2 | 9.7 | 0.00 | 0.81 | 0.00 | 38 | 1014.0 |
| 20260504192506 | 29 | 47 | 4.8 | 12.9 | 0.00 | 0.81 | 0.00 | 35 | 1014.1 |
| 20260504192005 | 29 | 28 | 4.8 | 8.0 | 0.00 | 0.81 | 0.00 | 38 | 1014.1 |
| 20260504191504 | 30 | 357 | 3.2 | 4.8 | 0.00 | 0.81 | 0.00 | 38 | 1014.2 |
| 20260504190504 | 28 | 16 | 4.8 | 11.3 | 0.00 | 0.81 | 0.00 | 40 | 1014.5 |
| 20260504185005 | 28 | 78 | 3.2 | 11.3 | 0.00 | 0.81 | 0.00 | 38 | 1014.5 |
| 20260504184005 | 28 | 85 | 1.6 | 8.0 | 0.00 | 0.81 | 0.00 | 41 | 1014.9 |
| 20260504183004 | 29 | 76 | 4.8 | 11.3 | 0.00 | 0.81 | 0.00 | 38 | 1014.9 |
| 20260504182504 | 28 | 176 | 3.2 | 8.0 | 0.00 | 0.81 | 0.00 | 42 | 1015.3 |
| 20260504182006 | 27 | 41 | 3.2 | 8.0 | 0.00 | 0.81 | 0.00 | 43 | 1015.3 |
| 20260504180504 | 28 | 57 | 3.2 | 9.7 | 0.00 | 0.81 | 0.00 | 40 | 1015.4 |
| 20260504175504 | 28 | 40 | 4.8 | 12.9 | 0.00 | 0.81 | 0.00 | 41 | 1015.3 |
| 20260504174504 | 28 | 47 | 4.8 | 12.9 | 0.00 | 0.81 | 0.00 | 41 | 1015.4 |
| 20260504173504 | 27 | 50 | 4.8 | 11.3 | 0.00 | 0.81 | 0.00 | 41 | 1015.6 |
| 20260504173004 | 28 | 349 | 1.6 | 8.0 | 0.00 | 0.81 | 0.00 | 42 | 1015.5 |
| 20260504172505 | 28 | 35 | 1.6 | 12.9 | 0.00 | 0.81 | 0.00 | 43 | 1015.6 |
| 20260504171506 | 28 | 42 | 8.0 | 12.9 | 0.00 | 0.81 | 0.00 | 41 | 1015.7 |
| 20260504171006 | 28 | 70 | 4.8 | 9.7 | 0.00 | 0.81 | 0.00 | 43 | 1015.8 |
| 20260504170504 | 27 | 35 | 3.2 | 11.3 | 0.00 | 0.81 | 0.00 | 43 | 1015.9 |
| 20260504151003 | 26 | 66 | 6.4 | 11.3 | 0.00 | 0.81 | 0.00 | 50 | 1016.6 |
| 20260504150504 | 26 | 71 | 3.2 | 11.3 | 0.00 | 0.81 | 0.00 | 48 | 1016.5 |
| 20260504140505 | 24 | 33 | 4.8 | 11.3 | 0.00 | 0.81 | 0.00 | 55 | 1016.4 |